CZ-6A DEB, 54289

Orbit data source: Space-Track

CZ-6A DEB, 54289 is space debris in SSO originally from a launch on Fri, 11 Nov 2022 UTC launched from the Taiyaun Space Center, China (TSC). Debris objects in space refer to the collection of defunct objects orbiting the Earth. Examples of debris include non-operational satellites, rocket bodies, and fragments generated from explosions, collisions, or faulty payload assembly.

Loading next visibility...
Identifier
54289, 2022-151AG
Orbit
SSO
Country
Flag of CNCN / PRC
Related business
Manufacturer
SAST
Mission
Spacecraft
Bus & Motor
Unknown
Mass
Unknown
Launch date (UTC)
2022-11-11 (4 years ago)
Launch vehicle
Unknown
Launch site
Taiyaun Space Center, China (TSC)
Object type
Payload
Rocket body
Debris
Shape & HBR
Unknown shape, 0.2 m
Radar Cross Section
Medium (>0.1 m² and <1 m²)

Expand to show TLE details & history
Last TLE update: 18 hours ago

TLE from 18 hours ago
0 CZ-6A DEB
1 54289U 22151AG  26207.41382455  .00000319  00000-0  20943-3 0  9992
2 54289  98.8512 202.4058 0053129 243.6839 115.8867 14.08257654189724
Epoch: 2026-07-26T09:55Z
TLE epoch observation values (Epoch: 2026-07-26T09:55:54.441Z)
Latitude
-0.00006°
Longitude
109.31687°
Altitude
885.204 km
Speed
7.401 km/s
True Right ascension
13h 29m 37s
True Declination
0° 00' 00"
Sunlit
Object was in daylight at epoch
Visualization orbit readout
Latitude
Unknown
Longitude
Unknown
Altitude
Unknown
Speed
Unknown
Apparent Right ascension
Unknown
Apparent Declination
Unknown
Sunlit
N/A
Visualization observer readout
Local Sidereal Time
17:05:21
Azimuth
Unknown
Elevation
Unknown
Doppler factor
Unknown
Orbital elements
Apogee altitude
900.99 km
Perigee altitude
824.052 km
Semi-major axis
7,240.658 km
Eccentricity
0.00531
Inclination
98.8512°
RAAN
202.4058°
Arg. of periapsis
243.6839°
True anomaly
116.43283°
Mean anomaly
115.8867°
Eccentric anomaly
116.15993°
Mean motion
3.5227 °/min
Orbital period
102.19 mins
BSTAR
0.00020943
Loading maneuver chart data...
Computing Atmospheric mass density...
Loading historical data...
Loading historical data...
Loading historical data...
Loading historical data...
Loading historical data...
Loading historical data...
Loading historical data...

Documentation

Showing up to 5 results
|